Overview Statistics Trail Chart Weather Telemetry Raw packets
 

This is the latest recevied weather packets stored in our database for station/object KD2FKI. If no packets are shown the sender has not sent any weather packets the latest 10 day(s).

<< 1 2 3 4 5 6 7 >>
Time Temp. Humidity Pressure Rain* Wind** Luminosity Snow
1778172630 18.33° C 48% - 0 mm - - -
1778172056 17.78° C 49% - 0 mm - - -
1778171447 17.22° C 50% - 0 mm - - -
1778170835 16.67° C 50% - 0 mm - - -
1778170262 16.67° C 51% - 0 mm - - -
1778169653 15° C 56% - 0 mm - - -
1778169096 14.44° C 54% - 0 mm - - -
1778168431 14.44° C 55% - 0 mm - - -
1778167840 13.89° C 57% - 0 mm - - -
1778167246 13.89° C 56% - 0 mm - - -
1778166637 13.89° C 56% - 0 mm - - -
1778166045 13.89° C 57% - 0 mm - - -
1778165452 13.89° C 59% - 0 mm - - -
1778164841 13.33° C 60% - 0 mm - - -
1778164233 13.33° C 61% - 0 mm - - -
1778163638 12.78° C 61% - 0 mm - - -
1778163047 12.78° C 63% - 0 mm - - -
1778162438 12.78° C 63% - 0 mm - - -
1778161845 12.78° C 63% - 0 mm - - -
1778161234 12.78° C 65% - 0 mm - - -
1778160642 12.78° C 66% - 0 mm - - -
1778160032 12.22° C 68% - 0 mm - - -
1778159440 12.22° C 69% - 0 mm - - -
1778158830 12.22° C 69% - 0 mm - - -
1778158237 12.22° C 69% - 0 mm - - -

* Rain latest hour (hover to see other rain measurements)
** Current wind speed in m/s (hover to see current wind gust speed)